Flag for Germany Weather for the Past 2 Weeks in Neuburg an der Donau, Bavaria, Germany

Now
57 °F

Partly sunny.


Feels Like: 54 °F
Forecast: 43 / 62 °F
Wind: 13 mph from Northeast

Location: Neuburg / Donau

Current Time: May 1, 2016 at 2:45:25 PM

Latest Report: May 1, 2016 at 1:20 PM


Visibility: N/A

Pressure: 30.01 "Hg

Humidity: 51%

Dew Point: 39 °F

Location of Neuburg an der DonauLocation

Historic Weather in Neuburg an der Donau — Graph

°F

Neuburg an der Donau Temperature Yesterday

Maximum temperature yesterday: 66 °F (at 3:20 PM)
Minimum temperature yesterday: 32 °F (at 6:20 AM)
Average temperature yesterday: 51 °F

High & Low Weather Summary for the Past Weeks

 TemperatureHumidityPressure
High66 °F (Apr 22, 2:20 PM)100% (Apr 17, 6:20 AM)30.39 "Hg (Apr 17, 6:20 AM)
Low27 °F (Apr 28, 5:20 AM)26% (Apr 30, 3:20 PM)29.56 "Hg (Apr 26, 8:20 AM)
Average45 °F71%29.96 "Hg
* Reported Apr 16 1:20 PM — May 1 1:20 PM, Neuburg an der Donau, Weather by CustomWeather, © 2016

Note: Actual official high and low records may vary slightly from our data, if they occured in-between our weather recording intervals... More about our weather records

Advertising

Neuburg an der Donau Weather History for the Previous 24 Hours

Scroll right to see more
 ConditionsComfort  
Time TempWeatherWind HumidityBarometerVisibility
1:20 PM
Sun, May 1
57 °FPartly sunny.13 mph51%30.01 "HgN/A
12:20 PM57 °FPartly sunny.12 mph51%29.98 "HgN/A
11:20 AM57 °FPartly sunny.10 mph48%29.98 "HgN/A
10:20 AM55 °FBroken clouds.10 mph51%29.95 "HgN/A
9:20 AM52 °FPartly sunny.9 mph58%29.95 "HgN/A
8:20 AM50 °FPartly sunny.8 mph62%29.92 "HgN/A
7:20 AM48 °FPartly sunny.9 mph62%29.92 "HgN/A
6:20 AM48 °FPassing clouds.9 mph58%29.89 "HgN/A
5:20 AM50 °FPassing clouds.8 mph54%29.86 "HgN/A
4:20 AM48 °FPassing clouds.3 mph62%29.86 "HgN/A
3:20 AM50 °FPassing clouds.No wind58%29.86 "HgN/A
2:20 AM54 °FPassing clouds.5 mph44%29.86 "HgN/A
1:20 AM55 °FPassing clouds.9 mph41%29.83 "HgN/A
12:20 AM54 °FPassing clouds.7 mph47%29.86 "HgN/A
11:20 PM
Sat, Apr 30
55 °FPassing clouds.8 mph44%29.86 "HgN/A
10:20 PM55 °FPartly cloudy.7 mph44%29.86 "HgN/A
9:20 PM57 °FPartly sunny.6 mph36%29.86 "HgN/A
8:20 PM59 °FPartly sunny.7 mph34%29.86 "HgN/A
7:20 PM63 °FPartly sunny.10 mph30%29.89 "HgN/A
6:20 PM64 °FPartly sunny.12 mph32%29.89 "HgN/A
5:20 PM64 °FPartly sunny.9 mph32%29.89 "HgN/A
4:20 PM64 °FPartly sunny.7 mph30%29.92 "HgN/A
3:20 PM66 °FScattered clouds.8 mph26%29.92 "HgN/A
2:20 PM64 °FScattered clouds.7 mph30%29.95 "HgN/A
Weather by CustomWeather, © 2016

See weather overviewHow to use our weather pages